QFA518 YSSY-YBBN

Flight info

Callsign QFA518
Flight time 1h 11m
Altitude 41000
Route OLSEM Y193 BANDA H252 GOMOL
Aircraft A332/H-SDE3GHIJ2J3J5M1RVWXY/LB2D1

Departure

Time 2026-05-06 19:04
Airport Sydney Kingsford Smith International Airport (YSSY)

Arrival

Time 2026-05-06 20:15
Airport Brisbane International Airport (YBBN)
Time Latitude Longitude Altitude Speed Heading
2026-05-06 17:55 -33.93101 151.17627 34 ft 0 kts 167°
2026-05-06 18:46 -33.93097 151.17626 32 ft 3 kts 166°
2026-05-06 18:46 -33.93072 151.17615 33 ft 4 kts 149°
2026-05-06 18:47 -33.93049 151.17598 32 ft 4 kts 161°
2026-05-06 18:47 -33.93025 151.17593 33 ft 4 kts 191°
2026-05-06 18:47 -33.93009 151.17606 31 ft 4 kts 263°
2026-05-06 18:47 -33.93011 151.17638 33 ft 4 kts 284°
2026-05-06 18:48 -33.93017 151.17668 33 ft 2 kts 281°
2026-05-06 18:48 -33.93018 151.17670 33 ft 0 kts 281°
2026-05-06 18:51 -33.93012 151.17632 32 ft 10 kts 281°
2026-05-06 18:51 -33.93030 151.17554 32 ft 10 kts 220°
2026-05-06 18:51 -33.93072 151.17486 34 ft 11 kts 254°
2026-05-06 18:52 -33.93097 151.17443 33 ft 5 kts 206°
2026-05-06 18:52 -33.93147 151.17444 34 ft 8 kts 169°
2026-05-06 18:52 -33.93212 151.17460 34 ft 11 kts 168°
2026-05-06 18:52 -33.93294 151.17481 34 ft 13 kts 167°
2026-05-06 18:53 -33.93388 151.17505 34 ft 15 kts 172°
2026-05-06 18:53 -33.93497 151.17507 33 ft 17 kts 171°
2026-05-06 18:53 -33.93618 151.17538 33 ft 19 kts 168°
2026-05-06 18:53 -33.93751 151.17571 33 ft 16 kts 168°
2026-05-06 18:54 -33.93867 151.17602 33 ft 18 kts 167°
2026-05-06 18:54 -33.93998 151.17637 32 ft 20 kts 168°
2026-05-06 18:54 -33.94141 151.17675 33 ft 21 kts 166°
2026-05-06 18:54 -33.94282 151.17718 33 ft 21 kts 165°
2026-05-06 18:55 -33.94418 151.17761 34 ft 20 kts 166°
2026-05-06 18:55 -33.94558 151.17803 34 ft 22 kts 167°
2026-05-06 18:55 -33.94701 151.17839 33 ft 20 kts 168°
2026-05-06 18:55 -33.94825 151.17872 34 ft 17 kts 167°
2026-05-06 18:56 -33.94944 151.17902 33 ft 18 kts 168°
2026-05-06 18:56 -33.95072 151.17935 34 ft 16 kts 168°
2026-05-06 18:56 -33.95168 151.17968 34 ft 12 kts 145°
2026-05-06 18:56 -33.95180 151.18064 34 ft 13 kts 78°
2026-05-06 18:57 -33.95159 151.18182 34 ft 16 kts 78°
2026-05-06 18:57 -33.95134 151.18321 34 ft 18 kts 78°
2026-05-06 18:57 -33.95112 151.18472 34 ft 18 kts 89°
2026-05-06 18:57 -33.95172 151.18607 34 ft 20 kts 138°
2026-05-06 18:58 -33.95288 151.18707 34 ft 21 kts 158°
2026-05-06 18:58 -33.95437 151.18750 33 ft 23 kts 168°
2026-05-06 18:58 -33.95597 151.18792 34 ft 24 kts 167°
2026-05-06 18:58 -33.95765 151.18836 34 ft 25 kts 168°
2026-05-06 18:59 -33.95941 151.18880 34 ft 26 kts 167°
2026-05-06 18:59 -33.96106 151.18924 34 ft 21 kts 167°
2026-05-06 18:59 -33.96254 151.18962 34 ft 23 kts 168°
2026-05-06 18:59 -33.96413 151.19003 34 ft 24 kts 168°
2026-05-06 19:00 -33.96581 151.19048 33 ft 25 kts 167°
2026-05-06 19:00 -33.96746 151.19070 34 ft 19 kts 188°
2026-05-06 19:00 -33.96859 151.19075 34 ft 13 kts 168°
2026-05-06 19:00 -33.96953 151.19098 34 ft 15 kts 168°
2026-05-06 19:01 -33.97060 151.19127 34 ft 17 kts 167°
2026-05-06 19:01 -33.97121 151.19178 34 ft 11 kts 111°
2026-05-06 19:01 -33.97115 151.19258 33 ft 0 kts 78°
2026-05-06 19:02 -33.97114 151.19260 32 ft 3 kts 78°
2026-05-06 19:02 -33.97099 151.19343 30 ft 12 kts 71°
2026-05-06 19:02 -33.97045 151.19369 29 ft 7 kts 355°
2026-05-06 19:02 -33.97024 151.19364 29 ft 0 kts 347°
2026-05-06 19:03 -33.97024 151.19363 29 ft 2 kts 347°
2026-05-06 19:03 -33.96772 151.19297 27 ft 75 kts 348°
2026-05-06 19:03 -33.96036 151.19105 32 ft 138 kts 348°
2026-05-06 19:03 -33.94978 151.18835 433 ft 157 kts 343°
2026-05-06 19:04 -33.93912 151.18725 1343 ft 157 kts
2026-05-06 19:04 -33.92952 151.19384 2088 ft 166 kts 27°
2026-05-06 19:04 -33.91929 151.20268 2377 ft 198 kts 30°
2026-05-06 19:04 -33.90704 151.21330 2606 ft 237 kts 30°
2026-05-06 19:05 -33.89257 151.22545 2972 ft 267 kts 31°
2026-05-06 19:05 -33.87683 151.23848 3743 ft 279 kts 31°
2026-05-06 19:05 -33.86077 151.25162 4855 ft 279 kts 31°
2026-05-06 19:05 -33.84581 151.26640 5950 ft 283 kts 50°
2026-05-06 19:06 -33.83746 151.28793 7005 ft 288 kts 72°
2026-05-06 19:06 -33.83235 151.31147 8013 ft 294 kts 75°
2026-05-06 19:06 -33.82694 151.33544 8965 ft 299 kts 68°
2026-05-06 19:06 -33.81709 151.35744 9657 ft 301 kts 51°
2026-05-06 19:07 -33.80415 151.37760 10341 ft 312 kts 47°
2026-05-06 19:07 -33.78983 151.39845 10842 ft 333 kts 46°
2026-05-06 19:07 -33.77497 151.41996 11588 ft 342 kts 46°
2026-05-06 19:07 -33.75969 151.44216 12485 ft 348 kts 46°
2026-05-06 19:08 -33.74417 151.46474 13394 ft 353 kts 45°
2026-05-06 19:08 -33.72845 151.48763 14218 ft 357 kts 46°
2026-05-06 19:08 -33.71253 151.51081 14990 ft 362 kts 46°
2026-05-06 19:08 -33.69637 151.53433 15774 ft 367 kts 45°
2026-05-06 19:09 -33.68006 151.55807 16558 ft 371 kts 45°
2026-05-06 19:09 -33.66352 151.58212 17316 ft 375 kts 45°
2026-05-06 19:09 -33.64562 151.60482 18067 ft 374 kts 36°
2026-05-06 19:09 -33.62526 151.62434 18740 ft 375 kts 30°
2026-05-06 19:10 -33.60380 151.64221 19414 ft 376 kts 27°
2026-05-06 19:10 -33.58182 151.65921 20077 ft 378 kts 26°
2026-05-06 19:10 -33.55945 151.67606 20705 ft 382 kts 25°
2026-05-06 19:10 -33.53681 151.69311 21266 ft 387 kts 25°
2026-05-06 19:11 -33.51389 151.71034 21829 ft 390 kts 23°
2026-05-06 19:11 -33.48964 151.72438 22450 ft 385 kts 14°
2026-05-06 19:11 -33.46431 151.73499 23070 ft 386 kts 11°
2026-05-06 19:11 -33.43861 151.74435 23663 ft 387 kts
2026-05-06 19:12 -33.41256 151.75300 24171 ft 389 kts
2026-05-06 19:12 -33.38634 151.76132 24691 ft 391 kts
2026-05-06 19:12 -33.35996 151.76957 25204 ft 393 kts
2026-05-06 19:12 -33.33345 151.77788 25674 ft 395 kts
2026-05-06 19:13 -33.30675 151.78632 26125 ft 399 kts
2026-05-06 19:13 -33.27983 151.79490 26612 ft 401 kts
2026-05-06 19:13 -33.25281 151.80358 27097 ft 403 kts
2026-05-06 19:13 -33.22563 151.81234 27566 ft 406 kts
2026-05-06 19:14 -33.19831 151.82115 28037 ft 408 kts
2026-05-06 19:14 -33.17085 151.83001 28490 ft 410 kts
2026-05-06 19:14 -33.14327 151.83890 28953 ft 412 kts
2026-05-06 19:14 -33.11548 151.84784 29378 ft 415 kts
2026-05-06 19:15 -33.08749 151.85683 29746 ft 418 kts
2026-05-06 19:15 -33.05928 151.86588 30160 ft 421 kts
2026-05-06 19:15 -33.03100 151.87496 30507 ft 423 kts
2026-05-06 19:15 -33.00279 151.88402 30849 ft 426 kts
2026-05-06 19:16 -32.97412 151.89321 31192 ft 428 kts
2026-05-06 19:16 -32.94524 151.90246 31530 ft 431 kts
2026-05-06 19:16 -32.91630 151.91175 31970 ft 430 kts
2026-05-06 19:16 -32.88745 151.92102 32443 ft 429 kts
2026-05-06 19:17 -32.85868 151.93025 32873 ft 428 kts
2026-05-06 19:17 -32.82991 151.93946 33292 ft 428 kts
2026-05-06 19:17 -32.80121 151.94864 33742 ft 427 kts
2026-05-06 19:17 -32.77258 151.95778 34168 ft 426 kts
2026-05-06 19:18 -32.74401 151.96690 34520 ft 425 kts
2026-05-06 19:18 -32.71542 151.97600 34868 ft 425 kts
2026-05-06 19:18 -32.68680 151.98510 35191 ft 425 kts
2026-05-06 19:18 -32.65821 151.99419 35524 ft 426 kts
2026-05-06 19:19 -32.62957 152.00329 35860 ft 426 kts
2026-05-06 19:19 -32.60098 152.01237 36183 ft 426 kts
2026-05-06 19:19 -32.57240 152.02145 36499 ft 426 kts
2026-05-06 19:19 -32.54395 152.03048 36813 ft 426 kts
2026-05-06 19:20 -32.51532 152.03956 37135 ft 426 kts
2026-05-06 19:20 -32.48667 152.04863 37415 ft 426 kts
2026-05-06 19:20 -32.45802 152.05771 37709 ft 426 kts
2026-05-06 19:20 -32.42939 152.06677 38010 ft 426 kts
2026-05-06 19:21 -32.40111 152.07572 38310 ft 426 kts
2026-05-06 19:21 -32.37215 152.08487 38616 ft 426 kts
2026-05-06 19:21 -32.34358 152.09390 38857 ft 426 kts
2026-05-06 19:21 -32.31527 152.10284 39089 ft 426 kts
2026-05-06 19:22 -32.28664 152.11188 39317 ft 426 kts
2026-05-06 19:22 -32.25792 152.12094 39515 ft 427 kts
2026-05-06 19:22 -32.22924 152.12997 39680 ft 427 kts
2026-05-06 19:22 -32.20047 152.13902 39876 ft 428 kts
2026-05-06 19:23 -32.17172 152.14807 40101 ft 428 kts
2026-05-06 19:23 -32.14289 152.15714 40305 ft 428 kts
2026-05-06 19:23 -32.11411 152.16619 40502 ft 428 kts
2026-05-06 19:23 -32.08530 152.17524 40698 ft 429 kts
2026-05-06 19:24 -32.05648 152.18428 40896 ft 429 kts
2026-05-06 19:24 -32.02762 152.19332 41013 ft 431 kts
2026-05-06 19:24 -31.99847 152.20241 41010 ft 436 kts
2026-05-06 19:25 -31.93915 152.22087 41021 ft 446 kts
2026-05-06 19:25 -31.87866 152.23977 41025 ft 451 kts
2026-05-06 19:26 -31.81802 152.25884 41032 ft 451 kts
2026-05-06 19:26 -31.75787 152.27768 41025 ft 450 kts
2026-05-06 19:27 -31.69705 152.29664 41028 ft 449 kts
2026-05-06 19:27 -31.63661 152.31544 41027 ft 449 kts
2026-05-06 19:28 -31.57661 152.33405 41031 ft 449 kts
2026-05-06 19:28 -31.51621 152.35278 41032 ft 449 kts
2026-05-06 19:29 -31.45586 152.37147 41044 ft 449 kts
2026-05-06 19:29 -31.39547 152.39016 41039 ft 449 kts
2026-05-06 19:30 -31.33509 152.40885 41035 ft 449 kts
2026-05-06 19:30 -31.27475 152.42747 41033 ft 448 kts
2026-05-06 19:31 -31.21454 152.44596 41037 ft 447 kts
2026-05-06 19:31 -31.12424 152.47371 41041 ft 447 kts
2026-05-06 19:32 -31.06403 152.49227 41032 ft 447 kts
2026-05-06 19:32 -31.01405 152.50763 41039 ft 446 kts
2026-05-06 19:33 -30.95465 152.52597 41026 ft 432 kts
2026-05-06 19:33 -30.92600 152.53489 41037 ft 421 kts
2026-05-06 19:33 -30.89792 152.54356 41034 ft 416 kts
2026-05-06 19:34 -30.84196 152.56052 41020 ft 416 kts
2026-05-06 19:34 -30.78593 152.57790 41033 ft 418 kts
2026-05-06 19:35 -30.73011 152.59773 41031 ft 420 kts
2026-05-06 19:35 -30.67450 152.61830 41050 ft 420 kts
2026-05-06 19:36 -30.61877 152.63877 40991 ft 420 kts
2026-05-06 19:36 -30.56301 152.65907 41036 ft 421 kts
2026-05-06 19:37 -30.50715 152.67930 41025 ft 420 kts
2026-05-06 19:37 -30.45142 152.69939 41034 ft 420 kts
2026-05-06 19:38 -30.39597 152.71935 41032 ft 420 kts
2026-05-06 19:38 -30.34014 152.73932 41056 ft 421 kts
2026-05-06 19:39 -30.28426 152.75944 41043 ft 420 kts
2026-05-06 19:39 -30.22849 152.77961 41034 ft 420 kts
2026-05-06 19:40 -30.17271 152.79969 41037 ft 420 kts
2026-05-06 19:40 -30.11689 152.81970 41043 ft 420 kts
2026-05-06 19:41 -30.06119 152.83966 41038 ft 419 kts
2026-05-06 19:41 -30.00539 152.85960 41042 ft 420 kts
2026-05-06 19:42 -29.94960 152.87955 41043 ft 420 kts
2026-05-06 19:42 -29.89377 152.89949 41033 ft 420 kts
2026-05-06 19:43 -29.83802 152.91935 41041 ft 419 kts
2026-05-06 19:43 -29.78226 152.93918 41040 ft 419 kts
2026-05-06 19:44 -29.72652 152.95900 41040 ft 419 kts
2026-05-06 19:44 -29.69839 152.96893 40847 ft 426 kts
2026-05-06 19:44 -29.67015 152.97892 40629 ft 423 kts
2026-05-06 19:45 -29.61519 152.99874 40451 ft 405 kts
2026-05-06 19:45 -29.58844 153.00835 40175 ft 402 kts
2026-05-06 19:45 -29.56178 153.01777 39807 ft 400 kts
2026-05-06 19:46 -29.53518 153.02712 39466 ft 399 kts
2026-05-06 19:46 -29.50868 153.03643 39132 ft 398 kts
2026-05-06 19:46 -29.48228 153.04571 38797 ft 396 kts
2026-05-06 19:46 -29.45596 153.05498 38417 ft 395 kts
2026-05-06 19:47 -29.42974 153.06423 38052 ft 393 kts
2026-05-06 19:47 -29.40361 153.07344 37737 ft 393 kts
2026-05-06 19:47 -29.37743 153.08266 37400 ft 394 kts
2026-05-06 19:47 -29.35149 153.09175 37063 ft 396 kts
2026-05-06 19:48 -29.32511 153.10101 36724 ft 397 kts
2026-05-06 19:48 -29.29866 153.11030 36383 ft 398 kts
2026-05-06 19:48 -29.27217 153.11963 36017 ft 399 kts
2026-05-06 19:48 -29.24554 153.12902 35647 ft 400 kts
2026-05-06 19:49 -29.21891 153.13840 35228 ft 401 kts
2026-05-06 19:49 -29.19219 153.14781 34688 ft 402 kts
2026-05-06 19:49 -29.16543 153.15722 34199 ft 403 kts
2026-05-06 19:49 -29.13853 153.16667 33596 ft 405 kts
2026-05-06 19:50 -29.11159 153.17613 33020 ft 405 kts
2026-05-06 19:50 -29.08467 153.18558 32458 ft 406 kts
2026-05-06 19:50 -29.05756 153.19509 31875 ft 408 kts
2026-05-06 19:50 -29.03037 153.20462 31275 ft 409 kts
2026-05-06 19:51 -29.00316 153.21415 30659 ft 410 kts
2026-05-06 19:51 -28.97580 153.22374 30142 ft 409 kts
2026-05-06 19:51 -28.94882 153.23324 29673 ft 404 kts
2026-05-06 19:51 -28.92215 153.24263 29253 ft 398 kts
2026-05-06 19:52 -28.89590 153.25184 28825 ft 393 kts
2026-05-06 19:52 -28.86980 153.26096 28389 ft 391 kts
2026-05-06 19:52 -28.84382 153.27001 27960 ft 390 kts
2026-05-06 19:52 -28.81792 153.27904 27538 ft 388 kts
2026-05-06 19:53 -28.79214 153.28803 27111 ft 386 kts
2026-05-06 19:53 -28.76655 153.29696 26684 ft 384 kts
2026-05-06 19:53 -28.74108 153.30584 26264 ft 382 kts
2026-05-06 19:53 -28.71606 153.31455 25829 ft 380 kts
2026-05-06 19:54 -28.69051 153.32345 25422 ft 378 kts
2026-05-06 19:54 -28.66545 153.33216 25009 ft 376 kts
2026-05-06 19:54 -28.64045 153.34085 24595 ft 374 kts
2026-05-06 19:54 -28.61597 153.34936 24189 ft 372 kts
2026-05-06 19:55 -28.59124 153.35795 23789 ft 371 kts
2026-05-06 19:55 -28.56663 153.36650 23313 ft 368 kts
2026-05-06 19:55 -28.54223 153.37502 22904 ft 366 kts
2026-05-06 19:55 -28.51791 153.38347 22491 ft 364 kts
2026-05-06 19:56 -28.49376 153.39183 22087 ft 362 kts
2026-05-06 19:56 -28.46971 153.40016 21667 ft 360 kts
2026-05-06 19:56 -28.44583 153.40842 21275 ft 358 kts
2026-05-06 19:56 -28.42207 153.41666 20878 ft 356 kts
2026-05-06 19:57 -28.39839 153.42485 20469 ft 354 kts
2026-05-06 19:57 -28.37492 153.43297 20067 ft 352 kts
2026-05-06 19:57 -28.35155 153.44105 19661 ft 350 kts
2026-05-06 19:57 -28.32835 153.44906 19265 ft 348 kts 10°
2026-05-06 19:58 -28.30529 153.45703 18862 ft 346 kts 10°
2026-05-06 19:58 -28.28243 153.46493 18465 ft 344 kts 11°
2026-05-06 19:58 -28.25954 153.47283 18022 ft 342 kts 11°
2026-05-06 19:58 -28.23687 153.48066 17617 ft 339 kts 11°
2026-05-06 19:59 -28.21432 153.48844 17206 ft 338 kts 11°
2026-05-06 19:59 -28.19170 153.49493 16817 ft 331 kts
2026-05-06 19:59 -28.16912 153.49513 16388 ft 320 kts 346°
2026-05-06 19:59 -28.14833 153.48772 16002 ft 310 kts 330°
2026-05-06 20:00 -28.12993 153.47542 15628 ft 306 kts 324°
2026-05-06 20:00 -28.11225 153.46203 15283 ft 305 kts 323°
2026-05-06 20:00 -28.09466 153.44855 14872 ft 304 kts 323°
2026-05-06 20:00 -28.07719 153.43524 14502 ft 302 kts 323°
2026-05-06 20:01 -28.05971 153.42199 14138 ft 302 kts 323°
2026-05-06 20:01 -28.04226 153.40881 13753 ft 301 kts 324°
2026-05-06 20:01 -28.02481 153.39567 13353 ft 300 kts 324°
2026-05-06 20:01 -28.00744 153.38260 12981 ft 300 kts 324°
2026-05-06 20:02 -27.99009 153.36956 12614 ft 299 kts 324°
2026-05-06 20:02 -27.97277 153.35654 12235 ft 298 kts 323°
2026-05-06 20:02 -27.95608 153.34259 11837 ft 297 kts 320°
2026-05-06 20:02 -27.94004 153.32796 11485 ft 296 kts 319°
2026-05-06 20:03 -27.92409 153.31320 11112 ft 296 kts 319°
2026-05-06 20:03 -27.90821 153.29847 10733 ft 296 kts 319°
2026-05-06 20:03 -27.89252 153.28394 10393 ft 293 kts 319°
2026-05-06 20:03 -27.87714 153.26974 10304 ft 278 kts 319°
2026-05-06 20:04 -27.86247 153.25621 10193 ft 267 kts 319°
2026-05-06 20:04 -27.84817 153.24337 10073 ft 259 kts 320°
2026-05-06 20:04 -27.83366 153.23087 9711 ft 259 kts 321°
2026-05-06 20:04 -27.81950 153.21878 9384 ft 259 kts 321°
2026-05-06 20:05 -27.80514 153.20659 9086 ft 258 kts 321°
2026-05-06 20:05 -27.79078 153.19440 8767 ft 257 kts 320°
2026-05-06 20:05 -27.77782 153.18072 8444 ft 254 kts 310°
2026-05-06 20:05 -27.76662 153.16535 8147 ft 253 kts 307°
2026-05-06 20:06 -27.75578 153.14966 7842 ft 253 kts 307°
2026-05-06 20:06 -27.74454 153.13441 7515 ft 252 kts 309°
2026-05-06 20:06 -27.73306 153.11957 7199 ft 250 kts 309°
2026-05-06 20:06 -27.72163 153.10496 6998 ft 244 kts 309°
2026-05-06 20:07 -27.71061 153.09096 6930 ft 234 kts 309°
2026-05-06 20:07 -27.69991 153.07736 6720 ft 232 kts 309°
2026-05-06 20:07 -27.68912 153.06364 6392 ft 235 kts 309°
2026-05-06 20:07 -27.67824 153.04982 6099 ft 236 kts 309°
2026-05-06 20:08 -27.66730 153.03593 5831 ft 236 kts 309°
2026-05-06 20:08 -27.65665 153.02242 5749 ft 225 kts 309°
2026-05-06 20:08 -27.64651 153.00957 5680 ft 213 kts 309°
2026-05-06 20:08 -27.63599 152.99851 5587 ft 203 kts 324°
2026-05-06 20:09 -27.62330 152.99229 5482 ft 195 kts 339°
2026-05-06 20:09 -27.61052 152.98836 5390 ft 186 kts 345°
2026-05-06 20:09 -27.59782 152.98768 5299 ft 180 kts
2026-05-06 20:09 -27.58584 152.99102 5033 ft 179 kts 18°
2026-05-06 20:10 -27.57408 152.99700 4482 ft 191 kts 24°
2026-05-06 20:10 -27.56201 153.00396 3998 ft 197 kts 25°
2026-05-06 20:10 -27.54983 153.01101 3591 ft 197 kts 25°
2026-05-06 20:10 -27.53769 153.01795 3314 ft 195 kts 25°
2026-05-06 20:11 -27.52577 153.02478 3086 ft 194 kts 25°
2026-05-06 20:11 -27.51377 153.03170 2857 ft 188 kts 25°
2026-05-06 20:11 -27.50262 153.03812 2619 ft 177 kts 25°
2026-05-06 20:11 -27.49197 153.04425 2393 ft 167 kts 25°
2026-05-06 20:12 -27.48194 153.05001 2180 ft 158 kts 25°
2026-05-06 20:12 -27.47248 153.05546 1976 ft 147 kts 25°
2026-05-06 20:12 -27.46376 153.06048 1791 ft 135 kts 25°
2026-05-06 20:12 -27.45569 153.06511 1618 ft 125 kts 25°
2026-05-06 20:13 -27.44809 153.06948 1446 ft 121 kts 25°
2026-05-06 20:13 -27.44053 153.07382 1298 ft 124 kts 25°
2026-05-06 20:13 -27.43257 153.07839 1127 ft 131 kts 25°
2026-05-06 20:13 -27.42440 153.08309 946 ft 132 kts 26°
2026-05-06 20:14 -27.41622 153.08774 760 ft 131 kts 26°
2026-05-06 20:14 -27.40811 153.09233 587 ft 130 kts 26°
2026-05-06 20:14 -27.40004 153.09697 415 ft 130 kts 27°
2026-05-06 20:14 -27.39204 153.10169 264 ft 130 kts 27°
2026-05-06 20:15 -27.38396 153.10626 100 ft 130 kts 26°
2026-05-06 20:15 -27.37609 153.11079 26 ft 118 kts 25°
2026-05-06 20:15 -27.36971 153.11443 31 ft 89 kts 26°
2026-05-06 20:15 -27.36533 153.11694 27 ft 39 kts 28°
2026-05-06 20:16 -27.36389 153.11823 28 ft 26 kts 49°
2026-05-06 20:16 -27.36302 153.11961 30 ft 13 kts 57°
2026-05-06 20:16 -27.36264 153.12034 29 ft 9 kts 70°
2026-05-06 20:16 -27.36269 153.12102 29 ft 10 kts 111°
2026-05-06 20:17 -27.36325 153.12135 28 ft 10 kts 186°
2026-05-06 20:17 -27.36397 153.12099 28 ft 13 kts 207°
2026-05-06 20:17 -27.36485 153.12049 30 ft 15 kts 207°
2026-05-06 20:17 -27.36587 153.11991 28 ft 18 kts 206°
2026-05-06 20:18 -27.36699 153.11927 27 ft 17 kts 207°
2026-05-06 20:18 -27.36810 153.11863 28 ft 19 kts 207°
2026-05-06 20:18 -27.36933 153.11793 29 ft 21 kts 207°
2026-05-06 20:18 -27.37066 153.11716 31 ft 21 kts 207°
2026-05-06 20:19 -27.37154 153.11666 28 ft 12 kts 207°
2026-05-06 20:19 -27.37233 153.11621 28 ft 14 kts 206°
2026-05-06 20:19 -27.37323 153.11626 29 ft 14 kts 139°
2026-05-06 20:19 -27.37378 153.11729 29 ft 17 kts 118°
2026-05-06 20:20 -27.37426 153.11834 29 ft 16 kts 117°
2026-05-06 20:20 -27.37479 153.11951 29 ft 18 kts 117°
2026-05-06 20:20 -27.37541 153.12087 27 ft 21 kts 117°
2026-05-06 20:20 -27.37603 153.12221 30 ft 19 kts 117°
2026-05-06 20:21 -27.37667 153.12363 28 ft 22 kts 117°
2026-05-06 20:21 -27.37714 153.12466 28 ft 23 kts 117°
2026-05-06 20:21 -27.37768 153.12586 29 ft 16 kts 117°
2026-05-06 20:21 -27.37819 153.12697 29 ft 10 kts 117°
2026-05-06 20:22 -27.37845 153.12757 30 ft 6 kts 117°
2026-05-06 20:22 -27.37849 153.12764 28 ft 0 kts 117°
2026-05-06 20:22 -27.37861 153.12790 30 ft 6 kts 117°
2026-05-06 20:23 -27.37893 153.12814 30 ft 6 kts 175°
2026-05-06 20:23 -27.37940 153.12796 29 ft 9 kts 206°
2026-05-06 20:23 -27.38002 153.12759 28 ft 11 kts 207°
2026-05-06 20:23 -27.38080 153.12714 28 ft 14 kts 207°
2026-05-06 20:24 -27.38175 153.12661 31 ft 16 kts 207°
2026-05-06 20:24 -27.38261 153.12612 30 ft 13 kts 207°
2026-05-06 20:24 -27.38343 153.12564 30 ft 14 kts 207°
2026-05-06 20:24 -27.38427 153.12516 27 ft 10 kts 207°
2026-05-06 20:25 -27.38457 153.12471 29 ft 7 kts 262°
2026-05-06 20:25 -27.38446 153.12423 29 ft 6 kts 294°
2026-05-06 20:25 -27.38435 153.12367 29 ft 8 kts 272°
2026-05-06 20:25 -27.38434 153.12301 25 ft 9 kts 263°
2026-05-06 20:26 -27.38457 153.12257 29 ft 5 kts 229°
2026-05-06 20:26 -27.38482 153.12226 28 ft 4 kts 228°
2026-05-06 20:26 -27.38496 153.12206 27 ft 3 kts 241°
2026-05-06 20:26 -27.38494 153.12181 29 ft 4 kts 285°
2026-05-06 20:27 -27.38482 153.12152 29 ft 3 kts 297°
2026-05-06 20:27 -27.38476 153.12139 28 ft 2 kts 297°
2026-05-06 20:27 -27.38474 153.12134 28 ft 0 kts 297°